North Island, CA

11:13 AM PDT on June 25, 2017 (GMT -0700)
North Island Naval Air Station

Weather History for KNZY - November, 2013

Change the Weather History Date:

Tuesday, November 19, 2013

  Actual Average Record
Temperature  
Mean Temperature 67 °F -  
Max Temperature 70 °F 65 °F 79 °F (2002)
Min Temperature 64 °F 50 °F 46 °F (2000)
Cooling Degree Days 2    
Growing Degree Days 17 (Base 50)    
Moisture  
Dew Point 54 °F    
Average Humidity 65    
Maximum Humidity 70    
Minimum Humidity 54    
Precipitation  
Precipitation 0.00 in - - ()
Sea Level Pressure  
Sea Level Pressure 30.02 in    
Wind  
Wind Speed 9 mph (NW)    
Max Wind Speed 13 mph    
Max Gust Speed -    
Visibility 10 miles    
Events      
Averages and records for this station are not official NWS values.
T = Trace of Precipitation, MM = Missing Value Source: NWS Daily Summary

Daily Weather History Graph

Daily Weather History Graph

Search for Another Location

Airport or City:

Trip Planner

Search our weather history database for the weather conditions in past years. The results will help you decide how hot, cold, wet, or windy it might be!

Date:

Astronomy

Nov. 19, 2013 Rise Set
Actual Time 6:22 AM PST 4:45 PM PST
Civil Twilight 5:56 AM PST 5:11 PM PST
Nautical Twilight 5:26 AM PST 5:41 PM PST
Astronomical Twilight 4:57 AM PST 6:11 PM PST
Moon 6:41 PM PST (11/19) 8:04 AM PST (11/19)
Length of Visible Light 11h 15m
Length of Day
10h 22m
Waning Gibbous, 95% of the Moon is Illuminated
Nov 19
Waning Gibbous
Nov 25
Last Quarter
Dec 2
New
Dec 9
First Quarter
Dec 17
Full

Hourly Weather History & Observations

Time (PST) Temp. Dew Point Humidity Pressure Visibility Wind Dir Wind Speed Gust Speed Precip Events Conditions
12:52 AM 66.0 °F 55.9 °F 70% 30.07 in 10.0 mi North 10.4 mph - N/A   Overcast
1:30 AM 64.9 °F 55.0 °F 70% 30.06 in 10.0 mi North 9.2 mph - N/A   Mostly Cloudy
1:52 AM 64.9 °F 55.0 °F 70% 30.06 in 10.0 mi North 8.1 mph - N/A   Mostly Cloudy
2:52 AM 64.9 °F 55.0 °F 70% 30.04 in 10.0 mi North 4.6 mph - N/A   Mostly Cloudy
3:52 AM 64.9 °F 55.0 °F 70% 30.03 in 10.0 mi North 3.5 mph - N/A   Mostly Cloudy
4:52 AM 64.9 °F 55.0 °F 70% 30.04 in 10.0 mi North 4.6 mph - N/A   Mostly Cloudy
5:52 AM 64.9 °F 55.0 °F 70% 30.05 in 10.0 mi NNE 5.8 mph - N/A   Mostly Cloudy
6:12 AM 64.9 °F 55.0 °F 70% 30.05 in 10.0 mi NW 11.5 mph - N/A   Mostly Cloudy
6:40 AM 64.9 °F 54.0 °F 68% 30.05 in 10.0 mi NW 11.5 mph - N/A   Mostly Cloudy
6:52 AM 64.9 °F 54.0 °F 68% 30.04 in 10.0 mi NW 9.2 mph - N/A   Mostly Cloudy
7:52 AM 66.0 °F 52.0 °F 60% 30.06 in 10.0 mi WNW 10.4 mph - N/A   Mostly Cloudy
8:52 AM 68.0 °F 53.1 °F 59% 30.07 in 10.0 mi NW 12.7 mph - N/A   Mostly Cloudy
9:52 AM 68.0 °F 52.0 °F 56% 30.07 in 10.0 mi NW 10.4 mph - N/A   Mostly Cloudy
10:52 AM 69.1 °F 52.0 °F 54% 30.06 in 10.0 mi NW 12.7 mph - N/A   Mostly Cloudy
11:52 AM 68.0 °F 53.1 °F 59% 30.02 in 10.0 mi NW 10.4 mph - N/A   Mostly Cloudy
12:52 PM 70.0 °F 53.1 °F 55% 30.00 in 10.0 mi NW 10.4 mph - N/A   Mostly Cloudy
1:52 PM 70.0 °F 53.1 °F 55% 29.98 in 10.0 mi West 10.4 mph - N/A   Mostly Cloudy
2:52 PM 69.1 °F 53.1 °F 57% 29.97 in 10.0 mi NW 11.5 mph - N/A   Mostly Cloudy
3:52 PM 66.9 °F 52.0 °F 59% 29.96 in 10.0 mi WNW 9.2 mph - N/A   Mostly Cloudy
4:52 PM 64.9 °F 53.1 °F 65% 29.98 in 10.0 mi NW 11.5 mph - N/A   Mostly Cloudy
5:52 PM 64.9 °F 54.0 °F 68% 29.97 in 10.0 mi NW 10.4 mph - N/A   Mostly Cloudy
6:52 PM 64.9 °F 53.1 °F 65% 29.98 in 10.0 mi NW 5.8 mph - N/A   Mostly Cloudy
7:25 PM 64.9 °F 54.0 °F 68% 29.99 in 10.0 mi NW 5.8 mph - N/A   Mostly Cloudy
7:52 PM 64.9 °F 54.0 °F 68% 29.98 in 10.0 mi WNW 5.8 mph - N/A   Mostly Cloudy
8:52 PM 64.9 °F 53.1 °F 65% 29.99 in 10.0 mi WNW 5.8 mph - N/A   Mostly Cloudy
9:52 PM 64.9 °F 54.0 °F 68% 30.00 in 10.0 mi NW 5.8 mph - N/A   Mostly Cloudy
10:52 PM 66.0 °F 53.1 °F 63% 29.99 in 10.0 mi Calm Calm - N/A   Mostly Cloudy
11:52 PM 64.9 °F 54.0 °F 68% 29.98 in 10.0 mi East 3.5 mph - N/A   Mostly Cloudy